Regional Weather Roundup
Issued by NWS

Home | Current Version | Previous Version | Graphics & Text | Print | Product List | Glossary On
Versions: 1 2 3 4 5 6 7 8 9 10 11 12 13 14 15 16 17 18 19 20 21 22 23 24 25 26 27 28 29 30 31 32 33 34 35 36 37 38 39 40 41 42 43 44 45 46 47 48 49 50
000
ASUS43 KMPX 290501
RWRMN
WEATHER ROUNDUP FOR MINNESOTA
NATIONAL WEATHER SERVICE TWIN CITIES/CHANHASSEN MN
1200 AM CDT SAT AUG 29 2015


NOTE: "FAIR" INDICATES FEW OR NO CLOUDS BELOW 12,000 FEET WITH NO
SIGNIFICANT WEATHER AND/OR OBSTRUCTIONS TO VISIBILITY. N/A MEANS
CURRENT SKY AND/OR WEATHER CONDITIONS ARE NOT AVAILABLE.

MNZ060>063-068>070-290600-
   Twin Cities Metro

CITY           SKY/WX    TMP DP  RH WIND       PRES   REMARKS
TWIN CITIES    CLEAR     61  55  81 NE5       30.04S
ST PAUL        CLEAR     60  56  86 E5        30.05R
CRYSTAL        CLEAR     60  56  86 E3        30.03R
BLAINE         CLEAR     59  57  94 CALM      30.04S
LAKEVILLE      CLEAR     55  55 100 CALM      30.03S
EDEN PRAIRIE   CLEAR     59  55  87 E5        30.03S
SOUTH ST PAUL  CLEAR     59  56  88 CALM      30.04S
LAKE ELMO      FAIR      55  55 100 CALM      30.06R
$$
MNZ001>005-007-008-013>017-022>024-027-028-290600-
   Northwest Minnesota

CITY           SKY/WX    TMP DP  RH WIND       PRES   REMARKS
BEMIDJI        CLEAR     67  64  87 SW9       29.95S
HALLOCK          N/A     64  63  94 CALM      29.86S FOG
ROSEAU         CLEAR     66  61  82 SW3       29.89R
WARROAD        CLEAR     66  63  88 W3        29.89S
THIEF RVR FALL CLEAR    N/A N/A N/A S10       29.90R
CROOKSTON      CLEAR     70  66  88 S8        29.90R
FOSSTON        CLEAR     64  63  94 S12       29.94S
DETROIT LAKES  CLEAR     68  61  77 S10       29.98R
MOORHEAD       CLEAR     68  63  83 S16       29.93S
PARK RAPIDS    CLEAR     66  61  84 SW9       29.99R
MAHNOMEN       FAIR      65  63  90 S9        29.95R
$$
MNZ006-009>011-018-025>026-290600-
   North Central Minnesota

CITY           SKY/WX    TMP DP  RH WIND       PRES   REMARKS
BAUDETTE       MOCLDY    69  65  86 W3        29.89S
FLAG ISLAND    CLEAR     66  66 100 CALM      29.86S FOG
INTL FALLS     CLOUDY    70  65  84 SW7       29.89R
WASKISH        CLEAR     70  64  83 SW8       29.91F
BIG FORK       PTCLDY    66  63  88 SW7       29.94S
LONGVILLE      CLEAR     66  63  88 SW9       29.98R
GRAND RAPIDS     N/A     66  61  82 S10       29.98S
CRANE LAKE     CLOUDY    64  61  88 S1        29.94S
ORR            CLOUDY    70  61  73 S6        29.90S
COOK           CLOUDY    68  63  83 S3        29.95S
WALKER         FAIR      66  61  84 SW7       29.97R
$$
MNZ012-019>021-037-290600-
   Northeast Minnesota

CITY           SKY/WX    TMP DP  RH WIND       PRES   REMARKS
DULUTH         PTCLDY    64  59  83 SW14      30.00R
ELY            LGT RAIN  64  55  72 NE5       30.00R
HIBBING        FAIR      67  61  81 S7        29.98R
EVELETH        PTCLDY    64  61  88 SW7       29.99R
DULUTH HARBOR  CLEAR     66  63  88 SW13      30.00R
TWO HARBORS    PTCLDY    68  63  83 SW8       29.96F
SILVER BAY     MOCLDY    66  61  82 SW6       29.96R
GRAND MARAIS     N/A     62  59  90 VRB3      29.98R
G MARAIS ARPRT TSTM      63  57  82 NE12      30.02R
$$
MNZ029>031-032-039>041-046>048-054>057-064-290600-
   West Central Minnesota

CITY           SKY/WX    TMP DP  RH WIND       PRES   REMARKS
FERGUS FALLS   CLEAR     64  64 100 S9        29.98S
WHEATON        CLEAR     63  59  88 S7        30.00S
MORRIS         CLEAR     61  59  94 S7        30.00S
ALEXANDRIA     CLEAR     63  60  90 S9        30.03S
ELBOW LAKE     FAIR      62  61  96 S9        30.00R
WADENA         CLEAR     63  61  94 S6        30.00R
GLENWOOD       CLEAR     59  57  94 S5        30.03S
APPLETON       CLEAR     63  57  82 S5        30.01S
BENSON         CLEAR     57  55  94 S3        30.03R
ORTONVILLE     CLEAR     63  59  88 S5        30.01S
MADISON        CLEAR     59  57  94 S3        30.02S
WILLMAR        FAIR      57  55  94 CALM      30.05R
$$
MNZ033>034-036-042>043-049>051-058-059-290600-
   Central Minnesota

CITY           SKY/WX    TMP DP  RH WIND       PRES   REMARKS
ST CLOUD       CLEAR     58  56  93 S5        30.03S
SAUK CENTRE    FAIR      58  57  96 S3        30.04R
PAYNESVILLE    CLEAR     60  56  88 SE5       30.04S
AITKIN         CLEAR     66  59  77 S8        30.00S
PINE RIVER     PTCLDY    64  61  88 S5        30.03R
BRAINERD       CLEAR     63  59  87 S9        30.02R
STAPLES        CLEAR     63  59  88 S8        30.01R
LONG PRAIRIE   CLOUDY    59  57  94 S7        30.03S
LITTLE FALLS   CLEAR     59  55  88 S3        30.03S
LITCHFIELD     CLEAR     57  57 100 CALM      30.04S
BUFFALO        CLEAR     57  54  88 CALM      30.05R
MAPLE LAKE     CLEAR     58  57  94 CALM      30.05S
$$
MNZ037-044-045-052-053-290600-
   East Central Minnesota

CITY           SKY/WX    TMP DP  RH WIND       PRES   REMARKS
PRINCETON      CLEAR     61  57  88 SE3       30.04S
MORA           CLEAR     59  54  82 CALM      30.06R
CAMBRIDGE      CLEAR     61  52  72 S5        30.02F
RUSH CITY      PTCLDY    58  55  90 SE5       30.05S
MOOSE LAKE     PTCLDY    63  59  88 SW9       30.01S
HINCKLEY       FAIR      61  55  82 S5        30.05R
CLOQUET        CLEAR     64  57  77 S9G16     30.01S
MCGREGOR       CLEAR     64  61  88 S6        30.02S
$$
MNZ071>073-080-081-089-090-097-098-290600-
   Southwest Minnesota

CITY           SKY/WX    TMP DP  RH WIND       PRES   REMARKS
MONTEVIDEO     CLEAR     59  57  94 S6        30.04S
GRANITE FALLS  CLEAR     55  54  97 S5        30.05R
CANBY          CLEAR     59  56  89 CALM      30.04S
MARSHALL       CLEAR     55  52  88 SW5       30.04R
REDWOOD FALLS  CLEAR     58  56  93 CALM      30.03S
OLIVIA         CLEAR     54  52  94 CALM      30.03S
PIPESTONE      CLEAR     57  55  94 CALM      30.04R
WINDOM         MOCLDY    55  54  94 CALM      30.03S
WORTHINGTON    CLOUDY    59  55  88 CALM      30.02F
JACKSON        CLOUDY    59  57  94 NE6       30.03S
TRACY          CLEAR     58  56  91 CALM      30.04S
SLAYTON        CLEAR     54  54 100 CALM      30.04S
$$
MNZ065>067-074>077-082>085-091>093-290600-
   South Central Minnesota

CITY           SKY/WX    TMP DP  RH WIND       PRES   REMARKS
MANKATO        CLEAR     57  54  88 NE5       30.01F
ST JAMES       CLEAR     55  55 100 CALM      30.03S
FAIRMONT       CLOUDY    59  54  82 NE5       30.01S
GLENCOE        CLEAR     56  56  98 CALM      30.03S
FARIBAULT      CLEAR     55  54  94 CALM      30.02F
OWATONNA       PTCLDY    55  54  94 E3        30.01F
WASECA         PTCLDY    55  54  94 MISG      30.02F
ALBERT LEA     CLOUDY    57  57 100 NE3       29.99F
$$
MNZ078>079-086>088-094>096-290600-
   Southeast Minnesota

CITY           SKY/WX    TMP DP  RH WIND       PRES   REMARKS
ROCHESTER      CLOUDY    58  56  93 E9        30.01R
RED WING       CLEAR     57  55  94 E5        30.02S
STANTON        CLEAR     55  53  93 CALM      30.01F FOG
DODGE CENTER   CLOUDY    55  54  94 N5        30.02R FOG
WINONA         CLOUDY    59  55  88 E3        30.02S
AUSTIN         CLOUDY    59  57  94 NE6       29.98S
PRESTON        CLOUDY    57  56  94 E7        30.00F
$$
ABBREVIATIONS USED IN REMARKS
   TC - TEMPERATURES IN CELSIUS
  WCI - WIND CHILL INDEX
   HX - HEAT INDEX
  VSB - VISIBILITY
$$



USA.gov is the U.S. government's official web portal to all federal, state and local government web resources and services.